Time,TemperatureF,DewpointF,PressureIn,WindDirection,WindDirectionDegrees,WindSpeedMPH,WindSpeedGustMPH,Humidity,HourlyPrecipIn,Conditions,Clouds,dailyrainin,SoftwareType,DateUTC
2013-12-06 00:03:00,23.5,19.9,30.22,NNW,343,8.0,14.0,86,0.00,,,0.01,meteohub,2013-12-06 06:03:00,
2013-12-06 00:08:00,23.5,19.9,30.23,NNW,340,2.0,15.0,86,0.00,,,0.00,meteohub,2013-12-06 06:08:00,
2013-12-06 00:13:00,23.7,20.5,30.24,NNW,347,0.0,13.0,87,0.00,,,0.00,meteohub,2013-12-06 06:13:00,
2013-12-06 00:18:00,23.7,20.1,30.23,North,355,5.0,13.0,86,0.00,,,0.00,meteohub,2013-12-06 06:18:00,
2013-12-06 00:23:00,23.9,20.7,30.22,NNW,341,8.0,13.0,87,0.00,,,0.00,meteohub,2013-12-06 06:23:00,
2013-12-06 00:28:00,23.7,20.7,30.19,NNW,343,6.0,12.0,88,0.00,,,0.00,meteohub,2013-12-06 06:28:00,
2013-12-06 00:33:00,23.7,20.7,30.19,NNE,15,0.0,13.0,88,0.00,,,0.00,meteohub,2013-12-06 06:33:00,
2013-12-06 00:38:00,23.9,20.8,30.21,NNW,328,5.0,13.0,88,0.00,,,0.00,meteohub,2013-12-06 06:38:00,
2013-12-06 00:43:00,23.9,20.8,30.21,NNW,341,6.0,13.0,88,0.00,,,0.00,meteohub,2013-12-06 06:43:00,
2013-12-06 00:48:00,23.7,20.7,30.22,NNW,341,7.0,13.0,88,0.00,,,0.00,meteohub,2013-12-06 06:48:00,
2013-12-06 00:53:00,23.9,21.2,30.22,NNW,339,5.0,9.0,89,0.00,,,0.00,meteohub,2013-12-06 06:53:00,
2013-12-06 00:58:00,23.9,20.8,30.23,NW,321,7.0,9.0,88,0.00,,,0.00,meteohub,2013-12-06 06:58:00,
2013-12-06 01:03:00,24.1,21.4,30.23,NNW,334,6.0,9.0,89,0.00,,,0.00,meteohub,2013-12-06 07:03:00,
2013-12-06 01:08:00,24.1,21.4,30.22,NNW,332,7.0,9.0,89,0.00,,,0.00,meteohub,2013-12-06 07:08:00,
2013-12-06 01:13:00,24.3,21.6,30.25,NW,312,12.0,12.0,89,0.00,,,0.00,meteohub,2013-12-06 07:13:00,
2013-12-06 01:18:00,24.4,21.7,30.27,NNW,339,12.0,13.0,89,0.00,,,0.00,meteohub,2013-12-06 07:18:00,
2013-12-06 01:23:00,24.4,21.2,30.25,NNW,336,0.0,15.0,87,0.00,,,0.00,meteohub,2013-12-06 07:23:00,
2013-12-06 01:28:00,24.4,20.8,30.26,NNW,336,10.0,17.0,86,0.00,,,0.00,meteohub,2013-12-06 07:28:00,
2013-12-06 01:33:00,24.4,21.2,30.28,NW,321,6.0,17.0,87,0.00,,,0.00,meteohub,2013-12-06 07:33:00,
2013-12-06 01:38:00,24.3,20.7,30.26,NNE,29,8.0,17.0,86,0.00,,,0.00,meteohub,2013-12-06 07:38:00,
2013-12-06 01:43:00,24.1,20.8,30.23,North,0,7.0,15.0,87,0.00,,,0.00,meteohub,2013-12-06 07:43:00,
2013-12-06 01:48:00,23.9,20.8,30.22,NE,34,3.0,15.0,88,0.00,,,0.00,meteohub,2013-12-06 07:48:00,
2013-12-06 01:53:00,23.7,20.7,30.21,NW,319,7.0,15.0,88,0.00,,,0.00,meteohub,2013-12-06 07:53:00,
2013-12-06 01:59:00,23.7,20.7,30.22,NNW,338,6.0,16.0,88,0.00,,,0.00,meteohub,2013-12-06 07:59:00,
2013-12-06 02:04:00,23.7,20.7,30.23,NNW,331,5.0,16.0,88,0.00,,,0.00,meteohub,2013-12-06 08:04:00,
2013-12-06 02:09:00,23.7,20.7,30.25,NNW,332,6.0,16.0,88,0.00,,,0.00,meteohub,2013-12-06 08:09:00,
2013-12-06 02:14:00,23.7,20.7,30.26,NNW,333,0.0,14.0,88,0.00,,,0.00,meteohub,2013-12-06 08:14:00,
2013-12-06 02:19:00,23.7,20.7,30.25,NNW,343,0.0,14.0,88,0.00,,,0.00,meteohub,2013-12-06 08:19:00,
2013-12-06 02:24:00,23.7,20.7,30.24,NNW,333,8.0,10.0,88,0.00,,,0.00,meteohub,2013-12-06 08:24:00,
2013-12-06 02:29:00,23.7,20.7,30.24,NNW,345,7.0,10.0,88,0.00,,,0.00,meteohub,2013-12-06 08:29:00,
2013-12-06 02:34:00,23.7,21.0,30.25,NW,313,2.0,9.0,89,0.00,,,0.00,meteohub,2013-12-06 08:34:00,
2013-12-06 02:39:00,23.7,21.0,30.19,NNE,19,8.0,10.0,89,0.00,,,0.00,meteohub,2013-12-06 08:39:00,
2013-12-06 02:44:00,24.1,21.6,30.22,NNW,336,8.0,11.0,90,0.00,,,0.00,meteohub,2013-12-06 08:44:00,
2013-12-06 02:49:00,24.4,21.9,30.23,NNE,24,6.0,13.0,90,0.00,,,0.00,meteohub,2013-12-06 08:49:00,
2013-12-06 02:54:00,24.6,22.1,30.24,NNW,340,9.0,13.0,90,0.00,,,0.00,meteohub,2013-12-06 08:54:00,
2013-12-06 02:59:00,24.8,22.1,30.24,NNW,346,10.0,12.0,89,0.00,,,0.00,meteohub,2013-12-06 08:59:00,
2013-12-06 03:04:00,24.6,21.9,30.24,NNW,329,10.0,14.0,89,0.00,,,0.00,meteohub,2013-12-06 09:04:00,
2013-12-06 03:09:00,24.6,21.6,30.25,North,355,12.0,16.0,88,0.00,,,0.00,meteohub,2013-12-06 09:09:00,
2013-12-06 03:14:00,24.6,21.4,30.25,NNW,340,10.0,16.0,87,0.00,,,0.00,meteohub,2013-12-06 09:14:00,
2013-12-06 03:19:00,24.4,20.7,30.27,NNW,335,11.0,16.0,85,0.00,,,0.00,meteohub,2013-12-06 09:19:00,
2013-12-06 03:24:00,24.6,21.0,30.26,North,349,8.0,16.0,86,0.00,,,0.00,meteohub,2013-12-06 09:24:00,
2013-12-06 03:29:00,24.6,21.4,30.25,North,0,13.0,16.0,87,0.00,,,0.00,meteohub,2013-12-06 09:29:00,
2013-12-06 03:34:00,24.4,20.8,30.25,NNW,327,11.0,16.0,86,0.00,,,0.00,meteohub,2013-12-06 09:34:00,
2013-12-06 03:39:00,24.3,20.7,30.27,North,5,8.0,17.0,86,0.00,,,0.00,meteohub,2013-12-06 09:39:00,
2013-12-06 03:44:00,24.3,20.7,30.27,NNW,334,6.0,17.0,86,0.00,,,0.00,meteohub,2013-12-06 09:44:00,
2013-12-06 03:49:00,24.3,20.7,30.26,NNW,336,8.0,17.0,86,0.00,,,0.00,meteohub,2013-12-06 09:49:00,
2013-12-06 03:54:00,24.3,20.7,30.25,North,5,6.0,15.0,86,0.00,,,0.00,meteohub,2013-12-06 09:54:00,
2013-12-06 03:59:00,24.3,21.2,30.26,NNW,340,7.0,15.0,88,0.00,,,0.00,meteohub,2013-12-06 09:59:00,
2013-12-06 04:04:00,24.3,21.0,30.27,NNW,337,9.0,15.0,87,0.00,,,0.00,meteohub,2013-12-06 10:04:00,
2013-12-06 04:09:00,24.1,20.5,30.28,NNW,342,11.0,15.0,86,0.00,,,0.00,meteohub,2013-12-06 10:09:00,
2013-12-06 04:14:00,24.1,20.5,30.28,NNW,333,10.0,14.0,86,0.00,,,0.00,meteohub,2013-12-06 10:14:00,
2013-12-06 04:19:00,23.9,20.3,30.27,NNW,331,9.0,16.0,86,0.00,,,0.00,meteohub,2013-12-06 10:19:00,
2013-12-06 04:24:00,23.7,20.1,30.28,NNW,344,13.0,16.0,86,0.00,,,0.00,meteohub,2013-12-06 10:24:00,
2013-12-06 04:29:00,23.5,19.9,30.28,NNW,339,5.0,18.0,86,0.00,,,0.00,meteohub,2013-12-06 10:29:00,
2013-12-06 04:34:00,23.5,19.9,30.27,North,9,10.0,18.0,86,0.00,,,0.00,meteohub,2013-12-06 10:34:00,
2013-12-06 04:39:00,23.5,19.9,30.28,North,0,10.0,18.0,86,0.00,,,0.00,meteohub,2013-12-06 10:39:00,
2013-12-06 04:44:00,23.7,20.5,30.27,WNW,303,7.0,20.0,87,0.00,,,0.00,meteohub,2013-12-06 10:44:00,
2013-12-06 04:49:00,23.7,20.1,30.27,NW,324,7.0,20.0,86,0.00,,,0.00,meteohub,2013-12-06 10:49:00,
2013-12-06 04:54:00,23.5,20.3,30.27,NNW,348,13.0,18.0,87,0.00,,,0.00,meteohub,2013-12-06 10:54:00,
2013-12-06 04:59:00,23.4,20.1,30.27,North,355,11.0,18.0,87,0.00,,,0.00,meteohub,2013-12-06 10:59:00,
2013-12-06 05:04:00,23.2,19.9,30.27,NW,326,14.0,18.0,87,0.00,,,0.00,meteohub,2013-12-06 11:04:00,
2013-12-06 05:09:00,23.0,19.4,30.28,NNW,337,6.0,18.0,86,0.00,,,0.00,meteohub,2013-12-06 11:09:00,
2013-12-06 05:14:00,22.8,19.6,30.27,NNW,337,8.0,18.0,87,0.00,,,0.00,meteohub,2013-12-06 11:14:00,
2013-12-06 05:19:00,22.8,19.6,30.29,NNW,331,12.0,18.0,87,0.00,,,0.00,meteohub,2013-12-06 11:19:00,
2013-12-06 05:24:00,22.6,18.9,30.30,NW,315,12.0,18.0,85,0.00,,,0.00,meteohub,2013-12-06 11:24:00,
2013-12-06 05:29:00,22.6,18.9,30.30,NNW,338,5.0,17.0,85,0.00,,,0.00,meteohub,2013-12-06 11:29:00,
2013-12-06 05:34:00,22.6,19.0,30.30,NNW,345,9.0,17.0,86,0.00,,,0.00,meteohub,2013-12-06 11:34:00,
2013-12-06 05:39:00,22.6,19.0,30.30,NNW,343,0.0,17.0,86,0.00,,,0.00,meteohub,2013-12-06 11:39:00,
2013-12-06 05:44:00,22.6,19.0,30.30,NNW,346,5.0,14.0,86,0.00,,,0.00,meteohub,2013-12-06 11:44:00,
2013-12-06 05:49:00,22.6,19.0,30.32,NNW,327,5.0,14.0,86,0.00,,,0.00,meteohub,2013-12-06 11:49:00,
2013-12-06 05:54:00,22.5,18.7,30.32,NNW,329,8.0,13.0,85,0.00,,,0.00,meteohub,2013-12-06 11:54:00,
2013-12-06 05:59:00,22.5,18.3,30.32,NNW,337,7.0,13.0,84,0.00,,,0.00,meteohub,2013-12-06 11:59:00,
2013-12-06 06:04:00,22.5,18.7,30.32,NNW,333,8.0,13.0,85,0.00,,,0.00,meteohub,2013-12-06 12:04:00,
2013-12-06 06:10:00,22.5,18.7,30.33,NNW,327,13.0,16.0,85,0.00,,,0.00,meteohub,2013-12-06 12:10:00,
2013-12-06 06:15:00,22.3,18.5,30.33,NNW,344,6.0,17.0,85,0.00,,,0.00,meteohub,2013-12-06 12:15:00,
2013-12-06 06:20:00,22.3,18.1,30.34,NNW,345,12.0,17.0,84,0.00,,,0.00,meteohub,2013-12-06 12:20:00,
2013-12-06 06:25:00,22.1,18.0,30.34,NNW,331,14.0,17.0,84,0.00,,,0.00,meteohub,2013-12-06 12:25:00,
2013-12-06 06:30:00,22.1,18.0,30.34,North,5,6.0,18.0,84,0.00,,,0.00,meteohub,2013-12-06 12:30:00,
2013-12-06 06:35:00,22.3,18.5,30.34,NNW,341,10.0,18.0,85,0.00,,,0.00,meteohub,2013-12-06 12:35:00,
2013-12-06 06:40:00,22.1,18.0,30.33,NNW,335,12.0,15.0,84,0.00,,,0.00,meteohub,2013-12-06 12:40:00,
2013-12-06 06:45:00,22.1,18.3,30.33,NW,323,6.0,15.0,85,0.00,,,0.00,meteohub,2013-12-06 12:45:00,
2013-12-06 06:50:00,22.3,18.5,30.35,NNW,346,13.0,17.0,85,0.00,,,0.00,meteohub,2013-12-06 12:50:00,
2013-12-06 06:55:00,22.3,18.5,30.36,North,355,5.0,17.0,85,0.00,,,0.00,meteohub,2013-12-06 12:55:00,
2013-12-06 07:00:00,22.3,18.7,30.35,North,0,3.0,14.0,86,0.00,,,0.00,meteohub,2013-12-06 13:00:00,
2013-12-06 07:05:00,22.3,18.5,30.35,NNW,340,12.0,14.0,85,0.00,,,0.00,meteohub,2013-12-06 13:05:00,
2013-12-06 07:10:00,22.3,18.5,30.35,NW,325,9.0,14.0,85,0.00,,,0.00,meteohub,2013-12-06 13:10:00,
2013-12-06 07:15:00,22.3,18.5,30.36,NNW,340,11.0,14.0,85,0.00,,,0.00,meteohub,2013-12-06 13:15:00,
2013-12-06 07:20:00,22.3,18.1,30.35,NNW,336,9.0,14.0,84,0.00,,,0.00,meteohub,2013-12-06 13:20:00,
2013-12-06 07:25:00,22.3,18.0,30.35,North,355,8.0,15.0,83,0.00,,,0.00,meteohub,2013-12-06 13:25:00,
2013-12-06 07:30:00,22.3,18.1,30.36,NNE,26,3.0,15.0,84,0.00,,,0.00,meteohub,2013-12-06 13:30:00,
2013-12-06 07:35:00,22.3,18.0,30.36,North,350,2.0,14.0,83,0.00,,,0.00,meteohub,2013-12-06 13:35:00,
2013-12-06 07:40:00,22.3,18.1,30.37,WNW,302,0.0,14.0,84,0.00,,,0.00,meteohub,2013-12-06 13:40:00,
2013-12-06 07:45:00,22.3,18.0,30.37,North,350,7.0,13.0,83,0.00,,,0.00,meteohub,2013-12-06 13:45:00,
2013-12-06 07:50:00,21.9,17.2,30.37,NNW,327,9.0,13.0,82,0.00,,,0.00,meteohub,2013-12-06 13:50:00,
2013-12-06 07:55:00,21.9,17.6,30.36,North,9,8.0,18.0,83,0.00,,,0.00,meteohub,2013-12-06 13:55:00,
2013-12-06 08:00:00,21.7,17.4,30.37,NNW,346,8.0,18.0,83,0.00,,,0.00,meteohub,2013-12-06 14:00:00,
2013-12-06 08:05:00,21.7,17.1,30.37,North,355,14.0,18.0,82,0.00,,,0.00,meteohub,2013-12-06 14:05:00,
2013-12-06 08:10:00,21.7,17.1,30.38,NNW,331,11.0,18.0,82,0.00,,,0.00,meteohub,2013-12-06 14:10:00,
2013-12-06 08:15:00,21.9,17.2,30.38,NW,323,7.0,19.0,82,0.00,,,0.00,meteohub,2013-12-06 14:15:00,
2013-12-06 08:20:00,21.9,17.2,30.39,NNW,336,10.0,19.0,82,0.00,,,0.00,meteohub,2013-12-06 14:20:00,
2013-12-06 08:25:00,22.1,17.4,30.40,NNW,340,8.0,17.0,82,0.00,,,0.00,meteohub,2013-12-06 14:25:00,
2013-12-06 08:30:00,22.1,17.8,30.40,NW,321,9.0,17.0,83,0.00,,,0.00,meteohub,2013-12-06 14:30:00,
2013-12-06 08:35:00,22.3,18.0,30.40,NNW,342,4.0,15.0,83,0.00,,,0.00,meteohub,2013-12-06 14:35:00,
2013-12-06 08:41:00,22.3,18.0,30.40,NNW,327,10.0,15.0,83,0.00,,,0.00,meteohub,2013-12-06 14:41:00,
2013-12-06 08:46:00,22.3,17.6,30.40,North,355,12.0,18.0,82,0.00,,,0.00,meteohub,2013-12-06 14:46:00,
2013-12-06 08:51:00,22.3,17.6,30.40,NNW,337,9.0,18.0,82,0.00,,,0.00,meteohub,2013-12-06 14:51:00,
2013-12-06 08:56:00,22.3,17.6,30.41,NNW,339,4.0,18.0,82,0.00,,,0.00,meteohub,2013-12-06 14:56:00,
2013-12-06 09:01:00,22.5,17.8,30.41,NNW,338,7.0,18.0,82,0.00,,,0.00,meteohub,2013-12-06 15:01:00,
2013-12-06 09:06:00,22.5,17.6,30.42,NW,325,11.0,15.0,81,0.00,,,0.00,meteohub,2013-12-06 15:06:00,
2013-12-06 09:11:00,22.6,18.0,30.42,NNW,339,9.0,15.0,82,0.00,,,0.00,meteohub,2013-12-06 15:11:00,
2013-12-06 09:16:00,22.6,18.3,30.42,North,5,3.0,16.0,83,0.00,,,0.00,meteohub,2013-12-06 15:16:00,
2013-12-06 09:21:00,22.8,18.1,30.42,NNW,340,11.0,16.0,82,0.00,,,0.00,meteohub,2013-12-06 15:21:00,
2013-12-06 09:26:00,22.8,18.0,30.43,NNW,331,11.0,13.0,81,0.00,,,0.00,meteohub,2013-12-06 15:26:00,
2013-12-06 09:31:00,22.8,18.0,30.43,NNW,329,11.0,13.0,81,0.00,,,0.00,meteohub,2013-12-06 15:31:00,
2013-12-06 09:36:00,22.6,17.4,30.43,NNW,329,9.0,16.0,80,0.00,,,0.00,meteohub,2013-12-06 15:36:00,
2013-12-06 09:41:00,23.0,18.0,30.43,NW,310,6.0,16.0,81,0.00,,,0.00,meteohub,2013-12-06 15:41:00,
2013-12-06 09:46:00,23.2,18.1,30.43,NNW,331,9.0,16.0,81,0.00,,,0.00,meteohub,2013-12-06 15:46:00,
2013-12-06 09:51:00,23.4,18.7,30.43,North,355,9.0,16.0,82,0.00,,,0.00,meteohub,2013-12-06 15:51:00,
2013-12-06 09:56:00,23.2,18.0,30.44,North,355,13.0,15.0,80,0.00,,,0.00,meteohub,2013-12-06 15:56:00,
2013-12-06 10:01:00,23.2,18.1,30.44,NNW,329,7.0,15.0,81,0.00,,,0.00,meteohub,2013-12-06 16:01:00,
2013-12-06 10:06:00,23.2,18.1,30.44,North,349,8.0,17.0,81,0.00,,,0.00,meteohub,2013-12-06 16:06:00,
2013-12-06 10:11:00,23.4,18.7,30.44,NNW,337,7.0,17.0,82,0.00,,,0.00,meteohub,2013-12-06 16:11:00,
2013-12-06 10:16:00,23.4,18.3,30.44,NW,309,0.0,14.0,81,0.00,,,0.00,meteohub,2013-12-06 16:16:00,
2013-12-06 10:21:00,23.5,18.9,30.44,NW,315,1.0,14.0,82,0.00,,,0.00,meteohub,2013-12-06 16:21:00,
2013-12-06 10:26:00,23.5,18.5,30.45,NNW,347,13.0,15.0,81,0.00,,,0.00,meteohub,2013-12-06 16:26:00,
2013-12-06 10:31:00,23.9,19.2,30.45,NW,326,8.0,15.0,82,0.00,,,0.00,meteohub,2013-12-06 16:31:00,
2013-12-06 10:36:00,23.9,18.9,30.45,North,5,11.0,15.0,81,0.00,,,0.00,meteohub,2013-12-06 16:36:00,
2013-12-06 10:41:00,24.1,19.0,30.45,NW,325,5.0,15.0,81,0.00,,,0.00,meteohub,2013-12-06 16:41:00,
2013-12-06 10:46:00,24.1,19.0,30.45,NW,307,11.0,18.0,81,0.00,,,0.00,meteohub,2013-12-06 16:46:00,
2013-12-06 10:51:00,24.3,19.6,30.45,West,273,2.0,18.0,82,0.00,,,0.00,meteohub,2013-12-06 16:51:00,
2013-12-06 10:56:00,24.1,18.9,30.45,NNW,346,15.0,18.0,80,0.00,,,0.00,meteohub,2013-12-06 16:56:00,
2013-12-06 11:01:00,24.1,18.9,30.45,NW,321,11.0,18.0,80,0.00,,,0.00,meteohub,2013-12-06 17:01:00,
2013-12-06 11:06:00,24.3,19.6,30.45,NNW,341,11.0,17.0,82,0.00,,,0.00,meteohub,2013-12-06 17:06:00,
2013-12-06 11:11:00,24.6,19.6,30.45,North,355,2.0,17.0,81,0.00,,,0.00,meteohub,2013-12-06 17:11:00,
2013-12-06 11:16:00,24.6,19.0,30.45,NNW,346,12.0,16.0,79,0.00,,,0.00,meteohub,2013-12-06 17:16:00,
2013-12-06 11:21:00,25.0,19.9,30.45,North,355,9.0,16.0,81,0.00,,,0.00,meteohub,2013-12-06 17:21:00,
2013-12-06 11:26:00,25.2,20.1,30.45,NNW,348,7.0,16.0,81,0.00,,,0.00,meteohub,2013-12-06 17:26:00,
2013-12-06 11:31:00,25.2,19.6,30.45,NNW,336,9.0,16.0,79,0.00,,,0.00,meteohub,2013-12-06 17:31:00,
2013-12-06 11:36:00,25.2,19.9,30.45,NNW,333,13.0,16.0,80,0.00,,,0.00,meteohub,2013-12-06 17:36:00,
2013-12-06 11:41:00,25.0,19.4,30.46,NW,313,8.0,16.0,79,0.00,,,0.00,meteohub,2013-12-06 17:41:00,
2013-12-06 11:46:00,24.8,18.7,30.45,NNW,336,12.0,21.0,77,0.00,,,0.00,meteohub,2013-12-06 17:46:00,
2013-12-06 11:51:00,24.4,18.3,30.45,North,350,10.0,21.0,77,0.00,,,0.00,meteohub,2013-12-06 17:51:00,
2013-12-06 11:56:00,24.4,18.5,30.45,North,355,10.0,21.0,78,0.00,,,0.00,meteohub,2013-12-06 17:56:00,
2013-12-06 12:01:00,25.0,19.4,30.45,NW,325,8.0,21.0,79,0.00,,,0.00,meteohub,2013-12-06 18:01:00,
2013-12-06 12:06:00,25.2,19.2,30.45,NNE,18,8.0,18.0,78,0.00,,,0.00,meteohub,2013-12-06 18:06:00,
2013-12-06 12:12:00,25.3,19.4,30.45,NNW,331,7.0,18.0,78,0.00,,,0.00,meteohub,2013-12-06 18:12:00,
2013-12-06 12:17:00,25.3,20.1,30.44,North,5,8.0,16.0,80,0.00,,,0.00,meteohub,2013-12-06 18:17:00,
2013-12-06 12:22:00,25.3,19.4,30.45,NNW,333,10.0,16.0,78,0.00,,,0.00,meteohub,2013-12-06 18:22:00,
2013-12-06 12:27:00,25.3,19.8,30.45,North,5,4.0,14.0,79,0.00,,,0.00,meteohub,2013-12-06 18:27:00,
2013-12-06 12:32:00,25.5,19.6,30.44,NNW,344,10.0,14.0,78,0.00,,,0.00,meteohub,2013-12-06 18:32:00,
2013-12-06 12:37:00,25.5,19.6,30.44,NNW,334,11.0,14.0,78,0.00,,,0.00,meteohub,2013-12-06 18:37:00,
2013-12-06 12:42:00,25.3,19.4,30.45,NNW,334,11.0,14.0,78,0.00,,,0.00,meteohub,2013-12-06 18:42:00,
2013-12-06 12:47:00,25.3,19.4,30.45,NNW,329,7.0,14.0,78,0.00,,,0.00,meteohub,2013-12-06 18:47:00,
2013-12-06 12:52:00,25.3,19.8,30.44,NNW,332,12.0,15.0,79,0.00,,,0.00,meteohub,2013-12-06 18:52:00,
2013-12-06 12:57:00,25.5,19.6,30.45,North,5,9.0,15.0,78,0.00,,,0.00,meteohub,2013-12-06 18:57:00,
2013-12-06 13:02:00,25.7,19.8,30.45,NNW,347,4.0,15.0,78,0.00,,,0.00,meteohub,2013-12-06 19:02:00,
2013-12-06 13:07:00,25.7,19.2,30.45,NNW,347,13.0,15.0,76,0.00,,,0.00,meteohub,2013-12-06 19:07:00,
2013-12-06 13:12:00,25.7,19.6,30.44,NW,317,9.0,15.0,77,0.00,,,0.00,meteohub,2013-12-06 19:12:00,
2013-12-06 13:17:00,25.5,18.7,30.44,NW,321,8.0,15.0,75,0.00,,,0.00,meteohub,2013-12-06 19:17:00,
2013-12-06 13:22:00,25.5,19.0,30.44,NW,321,11.0,17.0,76,0.00,,,0.00,meteohub,2013-12-06 19:22:00,
2013-12-06 13:27:00,25.9,19.8,30.44,NNW,333,12.0,17.0,77,0.00,,,0.00,meteohub,2013-12-06 19:27:00,
2013-12-06 13:32:00,26.2,19.8,30.44,WNW,298,7.0,17.0,76,0.00,,,0.00,meteohub,2013-12-06 19:32:00,
2013-12-06 13:37:00,26.2,19.8,30.44,NNW,336,10.0,13.0,76,0.00,,,0.00,meteohub,2013-12-06 19:37:00,
2013-12-06 13:42:00,26.4,19.6,30.44,NNW,348,7.0,13.0,75,0.00,,,0.00,meteohub,2013-12-06 19:42:00,
2013-12-06 13:47:00,26.4,19.6,30.44,NNW,338,12.0,13.0,75,0.00,,,0.00,meteohub,2013-12-06 19:47:00,
2013-12-06 13:52:00,26.4,19.9,30.43,NNE,15,1.0,14.0,76,0.00,,,0.00,meteohub,2013-12-06 19:52:00,
2013-12-06 13:57:00,26.8,19.9,30.43,ENE,65,7.0,14.0,75,0.00,,,0.00,meteohub,2013-12-06 19:57:00,
2013-12-06 14:02:00,26.8,19.6,30.43,NW,325,9.0,14.0,74,0.00,,,0.00,meteohub,2013-12-06 20:02:00,
2013-12-06 14:07:00,27.0,20.1,30.43,North,355,13.0,14.0,75,0.00,,,0.00,meteohub,2013-12-06 20:07:00,
2013-12-06 14:12:00,27.0,20.1,30.43,North,350,11.0,14.0,75,0.00,,,0.00,meteohub,2013-12-06 20:12:00,
2013-12-06 14:17:00,26.8,19.9,30.43,NNW,348,9.0,15.0,75,0.00,,,0.00,meteohub,2013-12-06 20:17:00,
2013-12-06 14:22:00,27.0,19.8,30.43,NW,304,13.0,15.0,74,0.00,,,0.00,meteohub,2013-12-06 20:22:00,
2013-12-06 14:27:00,27.0,19.8,30.43,North,355,0.0,15.0,74,0.00,,,0.00,meteohub,2013-12-06 20:27:00,
2013-12-06 14:32:00,27.0,19.8,30.43,NNW,339,11.0,17.0,74,0.00,,,0.00,meteohub,2013-12-06 20:32:00,
2013-12-06 14:37:00,27.0,19.4,30.43,NNW,336,10.0,19.0,73,0.00,,,0.00,meteohub,2013-12-06 20:37:00,
2013-12-06 14:42:00,27.0,20.1,30.43,ENE,58,5.0,19.0,75,0.00,,,0.00,meteohub,2013-12-06 20:42:00,
2013-12-06 14:47:00,27.1,19.9,30.43,North,9,11.0,19.0,74,0.00,,,0.00,meteohub,2013-12-06 20:47:00,
2013-12-06 14:52:00,27.1,19.9,30.43,NW,314,7.0,16.0,74,0.00,,,0.00,meteohub,2013-12-06 20:52:00,
2013-12-06 14:57:00,27.3,20.1,30.43,NNW,327,8.0,16.0,74,0.00,,,0.00,meteohub,2013-12-06 20:57:00,
2013-12-06 15:02:00,27.3,19.8,30.43,NNW,341,10.0,18.0,73,0.00,,,0.00,meteohub,2013-12-06 21:02:00,
2013-12-06 15:07:00,27.3,19.8,30.43,NNW,340,7.0,18.0,73,0.00,,,0.00,meteohub,2013-12-06 21:07:00,
2013-12-06 15:12:00,27.5,19.9,30.43,North,11,4.0,18.0,73,0.00,,,0.00,meteohub,2013-12-06 21:12:00,
2013-12-06 15:17:00,27.5,19.9,30.44,NNW,339,6.0,18.0,73,0.00,,,0.00,meteohub,2013-12-06 21:17:00,
2013-12-06 15:22:00,27.5,20.3,30.44,North,351,6.0,14.0,74,0.00,,,0.00,meteohub,2013-12-06 21:22:00,
2013-12-06 15:27:00,27.3,19.8,30.44,NNW,335,6.0,14.0,73,0.00,,,0.00,meteohub,2013-12-06 21:27:00,
2013-12-06 15:32:00,27.3,20.1,30.44,NNW,336,9.0,14.0,74,0.00,,,0.00,meteohub,2013-12-06 21:32:00,
2013-12-06 15:37:00,27.3,20.1,30.44,NNW,341,9.0,16.0,74,0.00,,,0.00,meteohub,2013-12-06 21:37:00,
2013-12-06 15:42:00,27.3,20.1,30.44,NNW,342,13.0,16.0,74,0.00,,,0.00,meteohub,2013-12-06 21:42:00,
2013-12-06 15:47:00,27.1,19.6,30.44,NNW,330,8.0,16.0,73,0.00,,,0.00,meteohub,2013-12-06 21:47:00,
2013-12-06 15:52:00,27.1,19.9,30.44,NW,310,1.0,16.0,74,0.00,,,0.00,meteohub,2013-12-06 21:52:00,
2013-12-06 15:57:00,27.1,19.6,30.44,North,0,6.0,16.0,73,0.00,,,0.00,meteohub,2013-12-06 21:57:00,
2013-12-06 16:02:00,27.1,19.9,30.44,North,0,11.0,14.0,74,0.00,,,0.00,meteohub,2013-12-06 22:02:00,
2013-12-06 16:07:00,27.0,19.8,30.44,North,0,5.0,14.0,74,0.00,,,0.00,meteohub,2013-12-06 22:07:00,
2013-12-06 16:12:00,27.0,19.8,30.45,North,355,6.0,15.0,74,0.00,,,0.00,meteohub,2013-12-06 22:12:00,
2013-12-06 16:17:00,27.0,19.4,30.45,NNW,347,7.0,15.0,73,0.00,,,0.00,meteohub,2013-12-06 22:17:00,
2013-12-06 16:22:00,27.0,19.4,30.45,NNW,338,5.0,15.0,73,0.00,,,0.00,meteohub,2013-12-06 22:22:00,
2013-12-06 16:27:00,27.0,20.1,30.45,North,11,7.0,15.0,75,0.00,,,0.00,meteohub,2013-12-06 22:27:00,
2013-12-06 16:32:00,27.0,19.4,30.46,NNW,336,7.0,15.0,73,0.00,,,0.00,meteohub,2013-12-06 22:32:00,
2013-12-06 16:37:00,26.8,19.2,30.46,WNW,300,9.0,13.0,73,0.00,,,0.00,meteohub,2013-12-06 22:37:00,
2013-12-06 16:42:00,26.8,19.6,30.46,North,355,8.0,13.0,74,0.00,,,0.00,meteohub,2013-12-06 22:42:00,
2013-12-06 16:47:00,26.6,19.4,30.46,NE,42,5.0,14.0,74,0.00,,,0.00,meteohub,2013-12-06 22:47:00,
2013-12-06 16:52:00,26.6,19.4,30.46,North,5,0.0,15.0,74,0.00,,,0.00,meteohub,2013-12-06 22:52:00,
2013-12-06 16:57:00,26.4,19.2,30.47,North,9,8.0,15.0,74,0.00,,,0.00,meteohub,2013-12-06 22:57:00,
2013-12-06 17:02:00,26.4,19.2,30.47,NNW,336,12.0,15.0,74,0.00,,,0.00,meteohub,2013-12-06 23:02:00,
2013-12-06 17:07:00,26.4,19.6,30.47,NNE,20,4.0,15.0,75,0.00,,,0.00,meteohub,2013-12-06 23:07:00,
2013-12-06 17:12:00,26.4,19.9,30.47,NNW,342,0.0,12.0,76,0.00,,,0.00,meteohub,2013-12-06 23:12:00,
2013-12-06 17:17:00,26.4,19.6,30.47,North,355,0.0,12.0,75,0.00,,,0.00,meteohub,2013-12-06 23:17:00,
2013-12-06 17:22:00,26.4,19.9,30.48,North,5,7.0,12.0,76,0.00,,,0.00,meteohub,2013-12-06 23:22:00,
2013-12-06 17:27:00,26.4,19.6,30.47,NNE,24,8.0,12.0,75,0.00,,,0.00,meteohub,2013-12-06 23:27:00,
2013-12-06 17:32:00,26.2,19.4,30.48,NE,38,1.0,13.0,75,0.00,,,0.00,meteohub,2013-12-06 23:32:00,
2013-12-06 17:37:00,26.1,19.2,30.48,North,349,1.0,14.0,75,0.00,,,0.00,meteohub,2013-12-06 23:37:00,
2013-12-06 17:42:00,26.1,19.2,30.48,NNE,19,0.0,14.0,75,0.00,,,0.00,meteohub,2013-12-06 23:42:00,
2013-12-06 17:47:00,26.1,19.6,30.49,NE,46,0.0,14.0,76,0.00,,,0.00,meteohub,2013-12-06 23:47:00,
2013-12-06 17:52:00,26.1,19.2,30.49,North,5,7.0,12.0,75,0.00,,,0.00,meteohub,2013-12-06 23:52:00,
2013-12-06 17:57:00,26.1,19.2,30.48,NNW,336,7.0,12.0,75,0.00,,,0.00,meteohub,2013-12-06 23:57:00,
2013-12-06 18:02:00,26.1,19.2,30.48,NNE,22,8.0,12.0,75,0.00,,,0.00,meteohub,2013-12-07 00:02:00,
2013-12-06 18:07:00,25.9,19.0,30.48,NNW,333,6.0,12.0,75,0.00,,,0.00,meteohub,2013-12-07 00:07:00,
2013-12-06 18:12:00,25.9,19.4,30.49,NNW,348,11.0,12.0,76,0.00,,,0.00,meteohub,2013-12-07 00:12:00,
2013-12-06 18:17:00,25.9,19.0,30.49,NNW,348,14.0,14.0,75,0.00,,,0.00,meteohub,2013-12-07 00:17:00,
2013-12-06 18:22:00,25.5,18.7,30.48,NNW,330,7.0,13.0,75,0.00,,,0.00,meteohub,2013-12-07 00:22:00,
2013-12-06 18:27:00,25.5,18.7,30.49,NNW,336,2.0,13.0,75,0.00,,,0.00,meteohub,2013-12-07 00:27:00,
2013-12-06 18:32:00,25.3,18.5,30.49,NW,307,6.0,14.0,75,0.00,,,0.00,meteohub,2013-12-07 00:32:00,
2013-12-06 18:37:00,25.3,18.5,30.50,North,355,8.0,14.0,75,0.00,,,0.00,meteohub,2013-12-07 00:37:00,
2013-12-06 18:42:00,25.3,18.9,30.50,North,0,0.0,13.0,76,0.00,,,0.00,meteohub,2013-12-07 00:42:00,
2013-12-06 18:47:00,25.3,18.9,30.50,North,0,7.0,13.0,76,0.00,,,0.00,meteohub,2013-12-07 00:47:00,
2013-12-06 18:52:00,25.3,18.5,30.50,North,9,0.0,13.0,75,0.00,,,0.00,meteohub,2013-12-07 00:52:00,
2013-12-06 18:57:00,25.3,18.5,30.50,NNW,329,7.0,11.0,75,0.00,,,0.00,meteohub,2013-12-07 00:57:00,
2013-12-06 19:02:00,25.2,18.3,30.50,NNW,340,9.0,12.0,75,0.00,,,0.00,meteohub,2013-12-07 01:02:00,
2013-12-06 19:07:00,25.2,18.3,30.51,North,351,0.0,12.0,75,0.00,,,0.00,meteohub,2013-12-07 01:07:00,
2013-12-06 19:12:00,25.2,18.3,30.51,NW,320,0.0,12.0,75,0.00,,,0.00,meteohub,2013-12-07 01:12:00,
2013-12-06 19:17:00,25.2,18.3,30.51,NNW,333,10.0,11.0,75,0.00,,,0.00,meteohub,2013-12-07 01:17:00,
2013-12-06 19:22:00,25.2,18.3,30.51,North,5,0.0,11.0,75,0.00,,,0.00,meteohub,2013-12-07 01:22:00,
2013-12-06 19:27:00,25.2,18.3,30.52,NNE,30,8.0,10.0,75,0.00,,,0.00,meteohub,2013-12-07 01:27:00,
2013-12-06 19:32:00,25.0,18.1,30.52,North,5,7.0,12.0,75,0.00,,,0.00,meteohub,2013-12-07 01:32:00,
2013-12-06 19:37:00,25.0,18.1,30.52,NNW,338,0.0,12.0,75,0.00,,,0.00,meteohub,2013-12-07 01:37:00,
2013-12-06 19:42:00,25.0,18.5,30.53,North,5,7.0,12.0,76,0.00,,,0.00,meteohub,2013-12-07 01:42:00,
2013-12-06 19:47:00,25.0,18.1,30.53,NNW,348,0.0,11.0,75,0.00,,,0.00,meteohub,2013-12-07 01:47:00,
2013-12-06 19:52:00,24.8,18.0,30.53,North,0,7.0,11.0,75,0.00,,,0.00,meteohub,2013-12-07 01:52:00,
2013-12-06 19:57:00,24.6,17.8,30.53,NNW,344,0.0,12.0,75,0.00,,,0.00,meteohub,2013-12-07 01:57:00,
2013-12-06 20:02:00,24.6,17.8,30.53,NNW,348,5.0,12.0,75,0.00,,,0.00,meteohub,2013-12-07 02:02:00,
2013-12-06 20:07:00,24.6,17.8,30.54,North,9,8.0,12.0,75,0.00,,,0.00,meteohub,2013-12-07 02:07:00,
2013-12-06 20:12:00,24.4,17.6,30.53,NE,43,0.0,12.0,75,0.00,,,0.00,meteohub,2013-12-07 02:12:00,
2013-12-06 20:17:00,24.4,17.6,30.53,North,351,4.0,13.0,75,0.00,,,0.00,meteohub,2013-12-07 02:17:00,
2013-12-06 20:22:00,24.4,17.6,30.53,NNW,335,7.0,13.0,75,0.00,,,0.00,meteohub,2013-12-07 02:22:00,
2013-12-06 20:27:00,24.3,17.4,30.53,NNW,338,0.0,11.0,75,0.00,,,0.00,meteohub,2013-12-07 02:27:00,
2013-12-06 20:32:00,24.3,17.4,30.54,North,349,0.0,11.0,75,0.00,,,0.00,meteohub,2013-12-07 02:32:00,
2013-12-06 20:37:00,24.3,17.4,30.53,North,350,1.0,12.0,75,0.00,,,0.00,meteohub,2013-12-07 02:37:00,
2013-12-06 20:42:00,24.3,17.8,30.54,North,0,0.0,12.0,76,0.00,,,0.00,meteohub,2013-12-07 02:42:00,
2013-12-06 20:47:00,24.3,17.8,30.54,NNW,342,0.0,11.0,76,0.00,,,0.00,meteohub,2013-12-07 02:47:00,
2013-12-06 20:52:00,24.3,17.4,30.55,NNW,346,5.0,11.0,75,0.00,,,0.00,meteohub,2013-12-07 02:52:00,
2013-12-06 20:57:00,24.1,17.6,30.55,NNW,332,0.0,11.0,76,0.00,,,0.00,meteohub,2013-12-07 02:57:00,
2013-12-06 21:02:00,24.1,17.2,30.55,NE,51,3.0,11.0,75,0.00,,,0.00,meteohub,2013-12-07 03:02:00,
2013-12-06 21:07:00,23.9,16.9,30.55,North,0,1.0,11.0,74,0.00,,,0.00,meteohub,2013-12-07 03:07:00,
2013-12-06 21:12:00,23.7,16.7,30.55,NNW,331,6.0,13.0,74,0.00,,,0.00,meteohub,2013-12-07 03:12:00,
2013-12-06 21:17:00,23.5,16.5,30.55,NW,313,5.0,13.0,74,0.00,,,0.00,meteohub,2013-12-07 03:17:00,
2013-12-06 21:22:00,23.5,16.7,30.55,NNW,333,8.0,13.0,75,0.00,,,0.00,meteohub,2013-12-07 03:22:00,
2013-12-06 21:27:00,23.4,16.7,30.56,North,355,10.0,13.0,75,0.00,,,0.00,meteohub,2013-12-07 03:27:00,
2013-12-06 21:32:00,23.2,16.5,30.56,NNW,348,8.0,13.0,75,0.00,,,0.00,meteohub,2013-12-07 03:32:00,
2013-12-06 21:37:00,23.2,16.7,30.56,NNW,328,0.0,13.0,76,0.00,,,0.00,meteohub,2013-12-07 03:37:00,
2013-12-06 21:42:00,23.2,16.7,30.56,NNW,329,0.0,13.0,76,0.00,,,0.00,meteohub,2013-12-07 03:42:00,
2013-12-06 21:47:00,23.2,16.7,30.58,North,5,4.0,12.0,76,0.00,,,0.00,meteohub,2013-12-07 03:47:00,
2013-12-06 21:52:00,23.2,17.4,30.57,North,0,0.0,12.0,78,0.00,,,0.00,meteohub,2013-12-07 03:52:00,
2013-12-06 21:57:00,23.2,17.1,30.57,NW,314,4.0,13.0,77,0.00,,,0.00,meteohub,2013-12-07 03:57:00,
2013-12-06 22:02:00,23.0,16.9,30.58,NNW,344,0.0,13.0,77,0.00,,,0.00,meteohub,2013-12-07 04:02:00,
2013-12-06 22:07:00,23.0,16.9,30.58,NNE,33,2.0,9.0,77,0.00,,,0.00,meteohub,2013-12-07 04:07:00,
2013-12-06 22:12:00,22.8,16.3,30.58,NNW,342,8.0,9.0,76,0.00,,,0.00,meteohub,2013-12-07 04:12:00,
2013-12-06 22:17:00,22.6,16.0,30.58,North,11,2.0,14.0,75,0.00,,,0.00,meteohub,2013-12-07 04:17:00,
2013-12-06 22:22:00,22.6,16.0,30.58,NNW,346,8.0,14.0,75,0.00,,,0.00,meteohub,2013-12-07 04:22:00,
2013-12-06 22:27:00,22.5,15.1,30.59,WNW,290,0.0,14.0,73,0.00,,,0.00,meteohub,2013-12-07 04:27:00,
2013-12-06 22:32:00,22.5,15.4,30.59,NNW,334,6.0,13.0,74,0.00,,,0.00,meteohub,2013-12-07 04:32:00,
2013-12-06 22:37:00,22.3,15.3,30.58,NNW,341,7.0,13.0,74,0.00,,,0.00,meteohub,2013-12-07 04:37:00,
2013-12-06 22:42:00,22.3,15.3,30.58,ENE,66,2.0,13.0,74,0.00,,,0.00,meteohub,2013-12-07 04:42:00,
2013-12-06 22:47:00,22.1,15.4,30.59,NNE,15,0.0,13.0,75,0.00,,,0.00,meteohub,2013-12-07 04:47:00,
2013-12-06 22:52:00,22.1,15.4,30.58,North,0,2.0,13.0,75,0.00,,,0.00,meteohub,2013-12-07 04:52:00,
2013-12-06 22:57:00,21.9,14.9,30.58,NNE,17,2.0,12.0,74,0.00,,,0.00,meteohub,2013-12-07 04:57:00,
2013-12-06 23:01:00,21.9,14.9,30.58,North,5,0.0,12.0,74,0.00,,,0.00,meteohub,2013-12-07 05:01:00,
2013-12-06 23:02:00,21.9,14.9,30.58,North,355,4.0,12.0,74,0.00,,,0.00,meteohub,2013-12-07 05:02:00,
2013-12-06 23:07:00,21.9,14.9,30.58,NNE,21,2.0,12.0,74,0.00,,,0.00,meteohub,2013-12-07 05:07:00,
2013-12-06 23:12:00,21.9,14.5,30.58,NW,311,5.0,13.0,73,0.00,,,0.00,meteohub,2013-12-07 05:12:00,
2013-12-06 23:17:00,21.7,14.7,30.58,NNW,348,0.0,13.0,74,0.00,,,0.00,meteohub,2013-12-07 05:17:00,
2013-12-06 23:22:00,21.7,14.7,30.59,NNE,25,3.0,13.0,74,0.00,,,0.00,meteohub,2013-12-07 05:22:00,
2013-12-06 23:27:00,21.7,14.7,30.59,North,355,10.0,13.0,74,0.00,,,0.00,meteohub,2013-12-07 05:27:00,
2013-12-06 23:32:00,21.7,14.7,30.58,NNW,344,5.0,12.0,74,0.00,,,0.00,meteohub,2013-12-07 05:32:00,
2013-12-06 23:37:00,21.7,14.7,30.59,NNE,13,3.0,12.0,74,0.00,,,0.00,meteohub,2013-12-07 05:37:00,
2013-12-06 23:42:00,21.7,14.7,30.58,North,355,4.0,12.0,74,0.00,,,0.00,meteohub,2013-12-07 05:42:00,
2013-12-06 23:47:00,21.6,14.5,30.58,NNW,328,5.0,12.0,74,0.00,,,0.00,meteohub,2013-12-07 05:47:00,
2013-12-06 23:52:00,21.6,14.5,30.58,NW,314,2.0,13.0,74,0.00,,,0.00,meteohub,2013-12-07 05:52:00,
2013-12-06 23:57:00,21.6,14.5,30.58,NNW,341,0.0,13.0,74,0.00,,,0.00,meteohub,2013-12-07 05:57:00,